Year,Month,Day,Hour,Minute,Value (Times are PST for temperature in C)
2008,09,29,00,00,7.70
2008,09,29,00,01,7.80
2008,09,29,00,02,7.80
2008,09,29,00,03,7.90
2008,09,29,00,04,8.00
2008,09,29,00,05,8.10
2008,09,29,00,06,8.20
2008,09,29,00,07,8.20
2008,09,29,00,08,8.30
2008,09,29,00,09,8.30
2008,09,29,00,10,8.30
2008,09,29,00,11,8.40
2008,09,29,00,12,8.40
2008,09,29,00,13,8.50
2008,09,29,00,14,8.50
2008,09,29,00,15,8.60
2008,09,29,00,16,8.60
2008,09,29,00,17,8.60
2008,09,29,00,18,8.50
2008,09,29,00,19,8.50
2008,09,29,00,20,8.50
2008,09,29,00,21,8.50
2008,09,29,00,22,8.40
2008,09,29,00,23,8.40
2008,09,29,00,24,8.40
2008,09,29,00,25,8.40
2008,09,29,00,26,8.40
2008,09,29,00,27,8.40
2008,09,29,00,28,8.40
2008,09,29,00,29,8.40
2008,09,29,00,30,8.40
2008,09,29,00,31,8.50
2008,09,29,00,32,8.50
2008,09,29,00,33,8.50
2008,09,29,00,34,8.60
2008,09,29,00,35,8.60
2008,09,29,00,36,8.70
2008,09,29,00,37,8.80
2008,09,29,00,38,8.90
2008,09,29,00,39,8.90
2008,09,29,00,40,9.00
2008,09,29,00,41,9.00
2008,09,29,00,42,9.10
2008,09,29,00,43,9.20
2008,09,29,00,44,9.20
2008,09,29,00,45,9.30
2008,09,29,00,46,9.30
2008,09,29,00,47,9.30
2008,09,29,00,48,9.40
2008,09,29,00,49,9.40
2008,09,29,00,50,9.30
2008,09,29,00,51,9.30
2008,09,29,00,52,9.30
2008,09,29,00,53,9.30
2008,09,29,00,54,9.30
2008,09,29,00,55,9.40
2008,09,29,00,56,9.70
2008,09,29,00,57,9.90
2008,09,29,00,58,10.10
2008,09,29,00,59,10.20
2008,09,29,01,00,10.50
2008,09,29,01,01,10.70
2008,09,29,01,02,10.90
2008,09,29,01,03,11.10
2008,09,29,01,04,11.20
2008,09,29,01,05,11.20
2008,09,29,01,06,11.20
2008,09,29,01,07,11.20
2008,09,29,01,08,11.20
2008,09,29,01,09,11.10
2008,09,29,01,10,11.00
2008,09,29,01,11,11.00
2008,09,29,01,12,10.90
2008,09,29,01,13,10.80
2008,09,29,01,14,10.80
2008,09,29,01,15,10.90
2008,09,29,01,16,10.90
2008,09,29,01,17,10.90
2008,09,29,01,18,10.90
2008,09,29,01,19,10.90
2008,09,29,01,20,10.90
2008,09,29,01,21,11.00
2008,09,29,01,22,11.00
2008,09,29,01,23,11.10
2008,09,29,01,24,11.20
2008,09,29,01,25,11.20
2008,09,29,01,26,11.20
2008,09,29,01,27,11.20
2008,09,29,01,28,11.20
2008,09,29,01,29,11.20
2008,09,29,01,30,11.10
2008,09,29,01,31,11.10
2008,09,29,01,32,11.10
2008,09,29,01,33,11.00
2008,09,29,01,34,10.90
2008,09,29,01,35,10.90
2008,09,29,01,36,10.80
2008,09,29,01,37,10.80
2008,09,29,01,38,10.70
2008,09,29,01,39,10.70
2008,09,29,01,40,10.60
2008,09,29,01,41,10.60
2008,09,29,01,42,10.60
2008,09,29,01,43,10.60
2008,09,29,01,44,10.60
2008,09,29,01,45,10.60
2008,09,29,01,46,10.60
2008,09,29,01,47,10.60
2008,09,29,01,48,10.60
2008,09,29,01,49,10.60
2008,09,29,01,50,10.50
2008,09,29,01,51,10.50
2008,09,29,01,52,10.50
2008,09,29,01,53,10.50
2008,09,29,01,54,10.50
2008,09,29,01,55,10.50
2008,09,29,01,56,10.50
2008,09,29,01,57,10.60
2008,09,29,01,58,10.60
2008,09,29,01,59,10.70
2008,09,29,02,00,10.80
2008,09,29,02,01,10.90
2008,09,29,02,02,11.20
2008,09,29,02,03,11.40
2008,09,29,02,04,11.60
2008,09,29,02,05,11.70
2008,09,29,02,06,11.90
2008,09,29,02,07,12.00
2008,09,29,02,08,12.10
2008,09,29,02,09,12.10
2008,09,29,02,10,12.10
2008,09,29,02,11,12.00
2008,09,29,02,12,12.00
2008,09,29,02,13,11.80
2008,09,29,02,14,11.80
2008,09,29,02,15,11.70
2008,09,29,02,16,11.60
2008,09,29,02,17,11.50
2008,09,29,02,18,11.40
2008,09,29,02,19,11.30
2008,09,29,02,20,11.20
2008,09,29,02,21,11.10
2008,09,29,02,22,11.00
2008,09,29,02,23,10.90
2008,09,29,02,24,10.80
2008,09,29,02,25,10.70
2008,09,29,02,26,10.60
2008,09,29,02,27,10.50
2008,09,29,02,28,10.40
2008,09,29,02,29,10.40
2008,09,29,02,30,10.40
2008,09,29,02,31,10.30
2008,09,29,02,32,10.30
2008,09,29,02,33,10.30
2008,09,29,02,34,10.30
2008,09,29,02,35,10.20
2008,09,29,02,36,10.20
2008,09,29,02,37,10.10
2008,09,29,02,38,10.00
2008,09,29,02,39,10.00
2008,09,29,02,40,10.00
2008,09,29,02,41,9.90
2008,09,29,02,42,9.90
2008,09,29,02,43,9.90
2008,09,29,02,44,9.80
2008,09,29,02,45,9.80
2008,09,29,02,46,9.80
2008,09,29,02,47,9.80
2008,09,29,02,48,9.80
2008,09,29,02,49,9.80
2008,09,29,02,50,9.80
2008,09,29,02,51,9.90
2008,09,29,02,52,9.90
2008,09,29,02,53,9.90
2008,09,29,02,54,9.90
2008,09,29,02,55,9.80
2008,09,29,02,56,9.80
2008,09,29,02,57,9.80
2008,09,29,02,58,9.80
2008,09,29,02,59,9.80
2008,09,29,03,00,9.80
2008,09,29,03,01,9.70
2008,09,29,03,02,9.70
2008,09,29,03,03,9.60
2008,09,29,03,04,9.60
2008,09,29,03,05,9.60
2008,09,29,03,06,9.60
2008,09,29,03,07,9.60
2008,09,29,03,08,9.60
2008,09,29,03,09,9.60
2008,09,29,03,10,9.60
2008,09,29,03,11,9.70
2008,09,29,03,12,9.70
2008,09,29,03,13,9.70
2008,09,29,03,14,9.80
2008,09,29,03,15,9.80
2008,09,29,03,16,9.90
2008,09,29,03,17,9.90
2008,09,29,03,18,9.90
2008,09,29,03,19,10.00
2008,09,29,03,20,10.00
2008,09,29,03,21,10.00
2008,09,29,03,22,10.00
2008,09,29,03,23,9.90
2008,09,29,03,24,9.90
2008,09,29,03,25,9.80
2008,09,29,03,26,9.70
2008,09,29,03,27,9.70
2008,09,29,03,28,9.60
2008,09,29,03,29,9.60
2008,09,29,03,30,9.50
2008,09,29,03,31,9.40
2008,09,29,03,32,9.40
2008,09,29,03,33,9.30
2008,09,29,03,34,9.30
2008,09,29,03,35,9.20
2008,09,29,03,36,9.10
2008,09,29,03,37,9.10
2008,09,29,03,38,9.00
2008,09,29,03,39,9.00
2008,09,29,03,40,8.90
2008,09,29,03,41,8.90
2008,09,29,03,42,8.80
2008,09,29,03,43,8.80
2008,09,29,03,44,8.80
2008,09,29,03,45,8.70
2008,09,29,03,46,8.70
2008,09,29,03,47,8.70
2008,09,29,03,48,8.70
2008,09,29,03,49,8.70
2008,09,29,03,50,8.60
2008,09,29,03,51,8.60
2008,09,29,03,52,8.60
2008,09,29,03,53,8.60
2008,09,29,03,54,8.60
2008,09,29,03,55,8.60
2008,09,29,03,56,8.60
2008,09,29,03,57,8.50
2008,09,29,03,58,8.50
2008,09,29,03,59,8.60
2008,09,29,04,00,8.60
2008,09,29,04,01,8.70
2008,09,29,04,02,8.80
2008,09,29,04,03,8.80
2008,09,29,04,04,8.90
2008,09,29,04,05,9.00
2008,09,29,04,06,9.10
2008,09,29,04,07,9.10
2008,09,29,04,08,9.20
2008,09,29,04,45,11.00
2008,09,29,04,46,11.10
2008,09,29,04,47,11.20
2008,09,29,04,48,11.30
2008,09,29,04,49,11.30
2008,09,29,04,50,11.40
2008,09,29,04,51,11.50
2008,09,29,04,52,11.70
2008,09,29,04,53,11.80
2008,09,29,04,54,11.90
2008,09,29,04,55,11.90
2008,09,29,04,56,11.90
2008,09,29,04,57,11.90
2008,09,29,04,58,12.00
2008,09,29,04,59,12.00
2008,09,29,05,00,12.00
2008,09,29,05,01,11.90
2008,09,29,05,02,11.90
2008,09,29,05,03,11.90
2008,09,29,05,04,11.90
2008,09,29,05,05,12.00
2008,09,29,05,06,12.10
2008,09,29,05,07,12.20
2008,09,29,05,08,12.20
2008,09,29,05,09,12.20
2008,09,29,05,10,12.30
2008,09,29,05,11,12.30
2008,09,29,05,12,12.30
2008,09,29,05,13,12.30
2008,09,29,05,14,12.20
2008,09,29,05,15,12.10
2008,09,29,05,16,12.00
2008,09,29,05,17,11.90
2008,09,29,05,18,11.90
2008,09,29,05,19,11.90
2008,09,29,05,20,11.80
2008,09,29,05,21,11.80
2008,09,29,05,22,11.70
2008,09,29,05,23,11.60
2008,09,29,05,24,11.60
2008,09,29,05,25,11.50
2008,09,29,05,26,11.40
2008,09,29,05,27,11.30
2008,09,29,05,28,11.30
2008,09,29,05,29,11.30
2008,09,29,05,30,11.30
2008,09,29,05,31,11.20
2008,09,29,05,32,11.20
2008,09,29,05,33,11.10
2008,09,29,05,34,11.10
2008,09,29,05,35,11.00
2008,09,29,05,36,11.00
2008,09,29,05,37,10.90
2008,09,29,05,38,10.90
2008,09,29,05,39,10.80
2008,09,29,05,40,10.80
2008,09,29,05,41,10.90
2008,09,29,05,42,10.90
2008,09,29,05,43,10.90
2008,09,29,05,44,11.00
2008,09,29,05,45,11.00
2008,09,29,05,46,11.00
2008,09,29,05,47,11.00
2008,09,29,05,48,11.00
2008,09,29,05,49,11.00
2008,09,29,05,50,11.00
2008,09,29,05,51,11.10
2008,09,29,05,52,11.20
2008,09,29,05,53,11.20
2008,09,29,05,54,11.20
2008,09,29,05,55,11.20
2008,09,29,05,56,11.20
2008,09,29,05,57,11.30
2008,09,29,05,58,11.30
2008,09,29,05,59,11.40
2008,09,29,06,00,11.40
2008,09,29,06,01,11.40
2008,09,29,06,02,11.50
2008,09,29,06,03,11.50
2008,09,29,06,04,11.60
2008,09,29,06,05,11.60
2008,09,29,06,06,11.50
2008,09,29,06,07,11.50
2008,09,29,06,08,11.50
2008,09,29,06,09,11.40
2008,09,29,06,11,11.30
2008,09,29,06,12,11.30
2008,09,29,06,13,11.30
2008,09,29,06,14,11.30
2008,09,29,06,15,11.30
2008,09,29,06,16,11.20
2008,09,29,06,17,11.20
2008,09,29,06,18,11.20
2008,09,29,06,19,11.20
2008,09,29,06,20,11.30
2008,09,29,06,21,11.30
2008,09,29,06,22,11.20
2008,09,29,06,23,11.20
2008,09,29,06,24,11.10
2008,09,29,06,25,11.20
2008,09,29,06,26,11.20
2008,09,29,06,27,11.20
2008,09,29,06,28,11.20
2008,09,29,06,29,11.20
2008,09,29,06,30,11.20
2008,09,29,06,31,11.20
2008,09,29,06,32,11.20
2008,09,29,06,33,11.20
2008,09,29,06,34,11.10
2008,09,29,06,35,11.10
2008,09,29,06,36,11.00
2008,09,29,06,37,11.10
2008,09,29,06,38,11.10
2008,09,29,06,39,11.10
2008,09,29,06,40,11.10
2008,09,29,06,41,11.10
2008,09,29,06,42,11.10
2008,09,29,06,43,11.10
2008,09,29,06,44,11.10
2008,09,29,06,45,11.10
2008,09,29,06,46,11.00
2008,09,29,06,47,11.00
2008,09,29,06,48,10.90
2008,09,29,06,49,10.90
2008,09,29,06,50,10.90
2008,09,29,06,51,10.80
2008,09,29,06,52,10.80
2008,09,29,06,53,10.80
2008,09,29,06,54,10.80
2008,09,29,06,55,10.70
2008,09,29,06,56,10.70
2008,09,29,06,57,10.60
2008,09,29,06,58,10.50
2008,09,29,06,59,10.60
2008,09,29,07,00,10.60
2008,09,29,07,01,10.60
2008,09,29,07,02,10.50
2008,09,29,07,03,10.50
2008,09,29,07,04,10.60
2008,09,29,07,05,10.60
2008,09,29,07,06,10.60
2008,09,29,07,07,10.80
2008,09,29,07,08,10.90
2008,09,29,07,09,10.90
2008,09,29,07,10,10.90
2008,09,29,07,11,10.90
2008,09,29,07,12,10.90
2008,09,29,07,13,10.80
2008,09,29,07,14,10.80
2008,09,29,07,15,10.80
2008,09,29,07,16,10.90
2008,09,29,07,17,11.10
2008,09,29,07,18,11.20
2008,09,29,07,19,11.20
2008,09,29,07,20,11.30
2008,09,29,07,21,11.40
2008,09,29,07,22,11.40
2008,09,29,07,23,11.40
2008,09,29,07,24,11.30
2008,09,29,07,25,11.40
2008,09,29,07,26,11.30
2008,09,29,07,27,11.30
2008,09,29,07,28,11.40
2008,09,29,07,29,11.40
2008,09,29,07,30,11.40
2008,09,29,07,31,11.40
2008,09,29,07,32,11.40
2008,09,29,07,33,11.30
2008,09,29,07,34,11.30
2008,09,29,07,35,11.20
2008,09,29,07,36,11.10
2008,09,29,07,37,11.00
2008,09,29,07,38,10.90
2008,09,29,07,39,10.80
2008,09,29,07,40,10.70
2008,09,29,07,41,10.70
2008,09,29,07,42,10.60
2008,09,29,07,43,10.50
2008,09,29,07,44,10.40
2008,09,29,07,45,10.40
2008,09,29,07,46,10.30
2008,09,29,07,47,10.30
2008,09,29,07,48,10.30
2008,09,29,07,49,10.30
2008,09,29,07,50,10.20
2008,09,29,07,51,10.20
2008,09,29,07,52,10.20
2008,09,29,07,53,10.30
2008,09,29,07,54,10.30
2008,09,29,07,55,10.30
2008,09,29,07,56,10.30
2008,09,29,07,57,10.30
2008,09,29,07,58,10.30
2008,09,29,07,59,10.30
2008,09,29,08,00,10.30
2008,09,29,08,01,10.30
2008,09,29,08,02,10.20
2008,09,29,08,03,10.20
2008,09,29,08,04,10.10
2008,09,29,08,05,10.10
2008,09,29,08,06,10.10
2008,09,29,08,07,10.00
2008,09,29,08,08,10.00
2008,09,29,08,09,9.90
2008,09,29,08,10,9.90
2008,09,29,08,11,9.90
2008,09,29,08,12,9.90
2008,09,29,08,13,9.90
2008,09,29,08,14,10.00
2008,09,29,08,15,10.10
2008,09,29,08,16,10.20
2008,09,29,08,17,10.20
2008,09,29,08,18,10.20
2008,09,29,08,19,10.30
2008,09,29,08,20,10.30
2008,09,29,08,21,10.40
2008,09,29,08,22,10.50
2008,09,29,08,23,10.60
2008,09,29,08,24,10.70
2008,09,29,08,25,10.80
2008,09,29,08,26,10.90
2008,09,29,08,27,11.00
2008,09,29,08,28,11.10
2008,09,29,08,29,11.10
2008,09,29,08,30,11.20
2008,09,29,08,31,11.30
2008,09,29,08,32,11.40
2008,09,29,08,33,11.50
2008,09,29,08,34,11.60
2008,09,29,08,35,11.80
2008,09,29,08,36,11.90
2008,09,29,08,37,12.00
2008,09,29,08,38,12.10
2008,09,29,08,39,12.10
2008,09,29,08,40,12.20
2008,09,29,08,41,12.30
2008,09,29,08,42,12.40
2008,09,29,08,43,12.40
2008,09,29,08,44,12.50
2008,09,29,08,45,12.60
2008,09,29,08,46,12.70
2008,09,29,08,47,12.80
2008,09,29,08,48,12.80
2008,09,29,08,49,12.90
2008,09,29,08,50,13.00
2008,09,29,08,51,13.10
2008,09,29,08,52,13.20
2008,09,29,08,53,13.30
2008,09,29,08,54,13.40
2008,09,29,08,55,13.50
2008,09,29,08,56,13.50
2008,09,29,08,57,13.60
2008,09,29,08,58,13.70
2008,09,29,08,59,13.80
2008,09,29,09,00,13.80
2008,09,29,09,01,13.80
2008,09,29,09,02,13.90
2008,09,29,09,03,13.90
2008,09,29,09,04,14.00
2008,09,29,09,05,14.00
2008,09,29,09,06,14.10
2008,09,29,09,07,14.20
2008,09,29,09,08,14.30
2008,09,29,09,09,14.30
2008,09,29,09,10,14.40
2008,09,29,09,11,14.50
2008,09,29,09,12,14.60
2008,09,29,09,13,14.70
2008,09,29,09,14,14.80
2008,09,29,09,15,14.90
2008,09,29,09,16,15.00
2008,09,29,09,17,15.00
2008,09,29,09,18,15.00
2008,09,29,09,19,15.00
2008,09,29,09,20,15.10
2008,09,29,09,21,15.20
2008,09,29,09,22,15.20
2008,09,29,09,23,15.30
2008,09,29,09,24,15.40
2008,09,29,09,25,15.50
2008,09,29,09,26,15.50
2008,09,29,09,27,15.60
2008,09,29,09,28,15.70
2008,09,29,09,29,15.70
2008,09,29,09,30,15.80
2008,09,29,09,31,15.90
2008,09,29,09,32,16.00
2008,09,29,09,33,16.10
2008,09,29,09,34,16.20
2008,09,29,09,35,16.30
2008,09,29,09,36,16.40
2008,09,29,09,37,16.50
2008,09,29,09,38,16.60
2008,09,29,09,39,16.70
2008,09,29,09,40,16.80
2008,09,29,09,41,16.80
2008,09,29,09,42,16.90
2008,09,29,09,43,17.00
2008,09,29,09,44,17.10
2008,09,29,09,45,17.10
2008,09,29,09,46,17.10
2008,09,29,09,47,17.20
2008,09,29,09,48,17.20
2008,09,29,09,49,17.20
2008,09,29,09,50,17.20
2008,09,29,09,51,17.20
2008,09,29,09,52,17.30
2008,09,29,09,53,17.30
2008,09,29,09,54,17.30
2008,09,29,09,55,17.30
2008,09,29,09,56,17.40
2008,09,29,09,57,17.50
2008,09,29,09,58,17.60
2008,09,29,09,59,17.60
2008,09,29,10,00,17.70
2008,09,29,10,01,17.70
2008,09,29,10,02,17.80
2008,09,29,10,03,17.80
2008,09,29,10,04,17.90
2008,09,29,10,05,17.90
2008,09,29,10,06,18.00
2008,09,29,10,07,18.10
2008,09,29,10,08,18.10
2008,09,29,10,09,18.20
2008,09,29,10,10,18.20
2008,09,29,10,11,18.20
2008,09,29,10,12,18.30
2008,09,29,10,13,18.30
2008,09,29,10,14,18.30
2008,09,29,10,15,18.30
2008,09,29,10,16,18.30
2008,09,29,10,17,18.30
2008,09,29,10,18,18.30
2008,09,29,10,19,18.30
2008,09,29,10,20,18.30
2008,09,29,10,21,18.30
2008,09,29,10,22,18.30
2008,09,29,10,23,18.20
2008,09,29,10,24,18.20
2008,09,29,10,25,18.20
2008,09,29,10,26,18.20
2008,09,29,10,27,18.30
2008,09,29,10,28,18.30
2008,09,29,10,29,18.30
2008,09,29,10,30,18.30
2008,09,29,10,31,18.40
2008,09,29,10,32,18.50
2008,09,29,10,33,18.50
2008,09,29,10,34,18.60
2008,09,29,10,35,18.70
2008,09,29,10,36,18.80
2008,09,29,10,37,18.80
2008,09,29,10,38,18.90
2008,09,29,10,39,18.90
2008,09,29,10,40,19.00
2008,09,29,10,41,19.10
2008,09,29,10,42,19.20
2008,09,29,10,43,19.20
2008,09,29,10,44,19.30
2008,09,29,10,45,19.40
2008,09,29,10,46,19.50
2008,09,29,10,47,19.50
2008,09,29,10,48,19.60
2008,09,29,10,49,19.60
2008,09,29,10,50,19.60
2008,09,29,10,51,19.60
2008,09,29,10,52,19.60
2008,09,29,10,53,19.60
2008,09,29,10,54,19.70
2008,09,29,10,55,19.70
2008,09,29,10,56,19.70
2008,09,29,10,57,19.70
2008,09,29,10,58,19.60
2008,09,29,10,59,19.60
2008,09,29,11,00,19.50
2008,09,29,11,01,19.50
2008,09,29,11,02,19.50
2008,09,29,11,03,19.40
2008,09,29,11,04,19.40
2008,09,29,11,05,19.40
2008,09,29,11,06,19.40
2008,09,29,11,07,19.40
2008,09,29,11,08,19.30
2008,09,29,11,09,19.20
2008,09,29,11,10,19.10
2008,09,29,11,11,19.00
2008,09,29,11,12,18.90
2008,09,29,11,13,18.80
2008,09,29,11,14,18.70
2008,09,29,11,15,18.60
2008,09,29,11,16,18.60
2008,09,29,11,17,18.50
2008,09,29,11,18,18.40
2008,09,29,11,19,18.40
2008,09,29,11,20,18.30
2008,09,29,11,21,18.30
2008,09,29,11,22,18.40
2008,09,29,11,23,18.40
2008,09,29,11,24,18.40
2008,09,29,11,25,18.50
2008,09,29,11,26,18.60
2008,09,29,11,27,18.80
2008,09,29,11,28,18.90
2008,09,29,11,29,19.00
2008,09,29,11,30,19.20
2008,09,29,11,31,19.30
2008,09,29,11,32,19.50
2008,09,29,11,33,19.60
2008,09,29,11,34,19.70
2008,09,29,11,35,19.80
2008,09,29,11,36,19.90
2008,09,29,11,37,20.00
2008,09,29,11,38,20.10
2008,09,29,11,39,20.20
2008,09,29,11,40,20.30
2008,09,29,11,41,20.40
2008,09,29,11,42,20.40
2008,09,29,11,43,20.50
2008,09,29,11,44,20.60
2008,09,29,11,45,20.60
2008,09,29,11,46,20.70
2008,09,29,11,47,20.70
2008,09,29,11,48,20.80
2008,09,29,11,49,20.80
2008,09,29,11,50,20.80
2008,09,29,11,51,20.80
2008,09,29,11,52,20.80
2008,09,29,11,53,20.80
2008,09,29,11,54,20.80
2008,09,29,11,55,20.90
2008,09,29,11,56,20.90
2008,09,29,11,57,20.80
2008,09,29,11,58,20.80
2008,09,29,11,59,20.80
2008,09,29,12,00,20.80
2008,09,29,12,01,20.80
2008,09,29,12,02,20.80
2008,09,29,12,03,20.80
2008,09,29,12,04,20.80
2008,09,29,12,05,20.80
2008,09,29,12,06,20.80
2008,09,29,12,07,20.70
2008,09,29,12,08,20.70
2008,09,29,12,09,20.70
2008,09,29,12,10,20.70
2008,09,29,12,11,20.70
2008,09,29,12,12,20.70
2008,09,29,12,13,20.70
2008,09,29,12,14,20.70
2008,09,29,12,15,20.70
2008,09,29,12,16,20.70
2008,09,29,12,17,20.80
2008,09,29,12,18,20.80
2008,09,29,12,19,20.80
2008,09,29,12,20,20.80
2008,09,29,12,21,20.90
2008,09,29,12,22,20.90
2008,09,29,12,23,20.90
2008,09,29,12,24,20.90
2008,09,29,12,25,20.90
2008,09,29,12,26,20.90
2008,09,29,12,27,20.90
2008,09,29,12,28,20.90
2008,09,29,12,29,20.90
2008,09,29,12,30,21.00
2008,09,29,12,31,21.00
2008,09,29,12,32,21.00
2008,09,29,12,33,21.00
2008,09,29,12,34,21.10
2008,09,29,12,35,21.10
2008,09,29,12,36,21.10
2008,09,29,12,37,21.10
2008,09,29,12,38,21.10
2008,09,29,12,39,21.10
2008,09,29,12,40,21.10
2008,09,29,12,41,21.10
2008,09,29,12,42,21.10
2008,09,29,12,43,21.20
2008,09,29,12,44,21.20
2008,09,29,12,45,21.30
2008,09,29,12,46,21.30
2008,09,29,12,47,21.30
2008,09,29,12,48,21.30
2008,09,29,12,49,21.30
2008,09,29,12,50,21.40
2008,09,29,12,51,21.30
2008,09,29,12,52,21.30
2008,09,29,12,53,21.30
2008,09,29,12,54,21.20
2008,09,29,12,55,21.20
2008,09,29,12,56,21.10
2008,09,29,12,57,21.10
2008,09,29,12,58,21.10
2008,09,29,12,59,21.10
2008,09,29,13,00,21.10
2008,09,29,13,01,21.10
2008,09,29,13,02,21.10
2008,09,29,13,03,21.10
2008,09,29,13,04,21.00
2008,09,29,13,05,21.00
2008,09,29,13,06,20.90
2008,09,29,13,07,21.00
2008,09,29,13,08,21.00
2008,09,29,13,09,21.00
2008,09,29,13,10,21.00
2008,09,29,13,11,21.00
2008,09,29,13,12,21.00
2008,09,29,13,13,21.00
2008,09,29,13,14,20.90
2008,09,29,13,15,20.90
2008,09,29,13,16,20.90
2008,09,29,13,17,20.90
2008,09,29,13,18,20.90
2008,09,29,13,19,21.00
2008,09,29,13,20,21.00
2008,09,29,13,21,21.00
2008,09,29,13,22,21.00
2008,09,29,13,23,21.10
2008,09,29,13,24,21.10
2008,09,29,13,25,21.20
2008,09,29,13,26,21.20
2008,09,29,13,27,21.20
2008,09,29,13,28,21.20
2008,09,29,13,29,21.20
2008,09,29,13,30,21.20
2008,09,29,13,31,21.20
2008,09,29,13,32,21.30
2008,09,29,13,33,21.30
2008,09,29,13,34,21.20
2008,09,29,13,35,21.20
2008,09,29,13,36,21.20
2008,09,29,13,37,21.20
2008,09,29,13,38,21.20
2008,09,29,13,39,21.20
2008,09,29,13,40,21.20
2008,09,29,13,41,21.20
2008,09,29,13,42,21.10
2008,09,29,13,43,21.10
2008,09,29,13,44,21.10
2008,09,29,13,45,21.10
2008,09,29,13,46,21.10
2008,09,29,13,47,21.10
2008,09,29,13,48,21.10
2008,09,29,13,49,21.20
2008,09,29,13,50,21.20
2008,09,29,13,51,21.30
2008,09,29,13,52,21.30
2008,09,29,13,53,21.30
2008,09,29,13,54,21.30
2008,09,29,13,55,21.30
2008,09,29,13,56,21.30
2008,09,29,13,57,21.30
2008,09,29,13,58,21.30
2008,09,29,13,59,21.20
2008,09,29,14,00,21.20
2008,09,29,14,01,21.20
2008,09,29,14,02,21.20
2008,09,29,14,03,21.20
2008,09,29,14,04,21.20
2008,09,29,14,05,21.30
2008,09,29,14,06,21.30
2008,09,29,14,07,21.30
2008,09,29,14,08,21.30
2008,09,29,14,09,21.30
2008,09,29,14,10,21.30
2008,09,29,14,11,21.30
2008,09,29,14,12,21.40
2008,09,29,14,13,21.40
2008,09,29,14,14,21.50
2008,09,29,14,15,21.50
2008,09,29,14,16,21.60
2008,09,29,14,17,21.60
2008,09,29,14,18,21.60
2008,09,29,14,19,21.70
2008,09,29,14,20,21.70
2008,09,29,14,21,21.80
2008,09,29,14,22,21.80
2008,09,29,14,23,21.80
2008,09,29,14,24,21.80
2008,09,29,14,25,21.80
2008,09,29,14,26,21.80
2008,09,29,14,27,21.80
2008,09,29,14,28,21.80
2008,09,29,14,29,21.80
2008,09,29,14,30,21.80
2008,09,29,14,31,21.80
2008,09,29,14,32,21.80
2008,09,29,14,33,21.80
2008,09,29,14,34,21.80
2008,09,29,14,35,21.80
2008,09,29,14,36,21.80
2008,09,29,14,37,21.80
2008,09,29,14,38,21.80
2008,09,29,14,39,21.90
2008,09,29,14,40,21.90
2008,09,29,14,41,21.90
2008,09,29,14,42,21.90
2008,09,29,14,43,22.00
2008,09,29,14,44,22.00
2008,09,29,14,45,22.00
2008,09,29,14,46,21.90
2008,09,29,14,47,21.90
2008,09,29,14,48,21.90
2008,09,29,14,49,21.90
2008,09,29,14,50,22.00
2008,09,29,14,51,22.00
2008,09,29,14,52,22.10
2008,09,29,14,53,22.10
2008,09,29,14,54,22.10
2008,09,29,14,55,22.10
2008,09,29,14,56,22.10
2008,09,29,14,57,22.10
2008,09,29,14,58,22.10
2008,09,29,14,59,22.10
2008,09,29,15,00,22.10
2008,09,29,15,01,22.10
2008,09,29,15,02,22.10
2008,09,29,15,03,22.10
2008,09,29,15,04,22.00
2008,09,29,15,05,21.90
2008,09,29,15,06,21.90
2008,09,29,15,07,21.90
2008,09,29,15,08,21.90
2008,09,29,15,09,21.90
2008,09,29,15,10,22.00
2008,09,29,15,11,22.00
2008,09,29,15,12,22.10
2008,09,29,15,13,22.10
2008,09,29,15,14,22.20
2008,09,29,15,15,22.20
2008,09,29,15,16,22.30
2008,09,29,15,17,22.30
2008,09,29,15,18,22.30
2008,09,29,15,19,22.40
2008,09,29,15,20,22.40
2008,09,29,15,21,22.50
2008,09,29,15,22,22.50
2008,09,29,15,23,22.60
2008,09,29,15,24,22.60
2008,09,29,15,25,22.60
2008,09,29,15,26,22.60
2008,09,29,15,27,22.50
2008,09,29,15,28,22.50
2008,09,29,15,29,22.50
2008,09,29,15,30,22.50
2008,09,29,15,31,22.40
2008,09,29,15,32,22.40
2008,09,29,15,33,22.40
2008,09,29,15,34,22.40
2008,09,29,15,35,22.40
2008,09,29,15,36,22.40
2008,09,29,15,37,22.40
2008,09,29,15,38,22.40
2008,09,29,15,39,22.40
2008,09,29,15,40,22.40
2008,09,29,15,41,22.30
2008,09,29,15,42,22.30
2008,09,29,15,43,22.30
2008,09,29,15,44,22.30
2008,09,29,15,45,22.30
2008,09,29,15,46,22.30
2008,09,29,15,47,22.30
2008,09,29,15,48,22.30
2008,09,29,15,49,22.30
2008,09,29,15,50,22.30
2008,09,29,15,51,22.30
2008,09,29,15,52,22.30
2008,09,29,15,53,22.30
2008,09,29,15,54,22.30
2008,09,29,15,55,22.30
2008,09,29,15,56,22.30
2008,09,29,15,57,22.30
2008,09,29,15,58,22.30
2008,09,29,15,59,22.30
2008,09,29,16,00,22.30
2008,09,29,16,01,22.30
2008,09,29,16,02,22.30
2008,09,29,16,03,22.30
2008,09,29,16,04,22.30
2008,09,29,16,05,22.30
2008,09,29,16,06,22.30
2008,09,29,16,07,22.30
2008,09,29,16,08,22.30
2008,09,29,16,09,22.30
2008,09,29,16,10,22.30
2008,09,29,16,11,22.30
2008,09,29,16,12,22.20
2008,09,29,16,13,22.20
2008,09,29,16,14,22.20
2008,09,29,16,15,22.20
2008,09,29,16,16,22.20
2008,09,29,16,17,22.20
2008,09,29,16,18,22.20
2008,09,29,16,19,22.20
2008,09,29,16,20,22.20
2008,09,29,16,21,22.20
2008,09,29,16,22,22.20
2008,09,29,16,23,22.20
2008,09,29,16,24,22.20
2008,09,29,16,25,22.20
2008,09,29,16,26,22.20
2008,09,29,16,27,22.20
2008,09,29,16,28,22.20
2008,09,29,16,29,22.20
2008,09,29,16,30,22.20
2008,09,29,16,31,22.20
2008,09,29,16,32,22.20
2008,09,29,16,33,22.20
2008,09,29,16,34,22.20
2008,09,29,16,35,22.20
2008,09,29,16,36,22.20
2008,09,29,16,37,22.20
2008,09,29,16,38,22.20
2008,09,29,16,39,22.20
2008,09,29,16,40,22.20
2008,09,29,16,41,22.20
2008,09,29,16,42,22.20
2008,09,29,16,43,22.20
2008,09,29,16,44,22.20
2008,09,29,16,45,22.10
2008,09,29,16,46,22.10
2008,09,29,16,47,22.10
2008,09,29,16,48,22.10
2008,09,29,16,49,22.00
2008,09,29,16,50,22.00
2008,09,29,16,51,22.00
2008,09,29,16,52,22.00
2008,09,29,16,53,22.00
2008,09,29,16,54,22.00
2008,09,29,16,55,21.90
2008,09,29,16,56,21.90
2008,09,29,16,57,21.90
2008,09,29,16,58,21.90
2008,09,29,16,59,21.90
2008,09,29,17,00,21.90
2008,09,29,17,01,21.90
2008,09,29,17,02,21.90
2008,09,29,17,03,21.90
2008,09,29,17,04,21.90
2008,09,29,17,05,21.90
2008,09,29,17,06,21.90
2008,09,29,17,07,21.90
2008,09,29,17,08,21.90
2008,09,29,17,09,21.80
2008,09,29,17,10,21.80
2008,09,29,17,11,21.80
2008,09,29,17,12,21.80
2008,09,29,17,13,21.80
2008,09,29,17,14,21.80
2008,09,29,17,15,21.80
2008,09,29,17,16,21.70
2008,09,29,17,17,21.70
2008,09,29,17,18,21.60
2008,09,29,17,19,21.60
2008,09,29,17,20,21.60
2008,09,29,17,21,21.50
2008,09,29,17,22,21.40
2008,09,29,17,23,21.40
2008,09,29,17,24,21.40
2008,09,29,17,25,21.30
2008,09,29,17,26,21.20
2008,09,29,17,27,21.20
2008,09,29,17,28,21.10
2008,09,29,17,29,21.00
2008,09,29,17,30,20.90
2008,09,29,17,31,20.80
2008,09,29,17,32,20.70
2008,09,29,17,33,20.60
2008,09,29,17,34,20.50
2008,09,29,17,35,20.40
2008,09,29,17,36,20.30
2008,09,29,17,37,20.20
2008,09,29,17,38,20.10
2008,09,29,17,39,20.00
2008,09,29,17,40,19.90
2008,09,29,17,41,19.70
2008,09,29,17,42,19.60
2008,09,29,17,43,19.50
2008,09,29,17,44,19.40
2008,09,29,17,45,19.30
2008,09,29,17,46,19.20
2008,09,29,17,47,19.10
2008,09,29,17,48,19.00
2008,09,29,17,49,19.00
2008,09,29,17,50,19.00
2008,09,29,17,51,19.10
2008,09,29,17,52,19.10
2008,09,29,17,53,19.10
2008,09,29,17,54,19.10
2008,09,29,17,55,19.10
2008,09,29,17,56,19.10
2008,09,29,17,57,19.10
2008,09,29,17,58,19.10
2008,09,29,17,59,19.10
2008,09,29,18,00,19.10
2008,09,29,18,01,19.10
2008,09,29,18,02,19.10